TimeCST,TemperatureF,Dew PointF,Humidity,Sea Level PressureIn,VisibilityMPH,Wind Direction,Wind SpeedMPH,Gust SpeedMPH,PrecipitationIn,Events,Conditions,WindDirDegrees,DateUTC
12:53 AM,52.0,48.9,89,30.02,9.0,South,12.7,-,N/A,,Clear,180,2005-01-01 06:53:00
1:53 AM,51.1,48.9,92,30.01,8.0,South,11.5,-,N/A,,Clear,170,2005-01-01 07:53:00
2:53 AM,51.1,48.9,92,30.01,5.0,South,12.7,-,N/A,,Clear,170,2005-01-01 08:53:00
3:53 AM,51.1,48.9,92,29.99,5.0,South,12.7,-,N/A,,Clear,170,2005-01-01 09:53:00
4:44 AM,51.8,48.2,88,30.02,3.0,South,12.7,-,N/A,,Scattered Clouds,170,2005-01-01 10:44:00
4:53 AM,51.1,48.9,92,30.00,3.0,South,13.8,-,N/A,,Scattered Clouds,170,2005-01-01 10:53:00
5:53 AM,54.0,52.0,93,30.00,5.0,South,18.4,-,N/A,,Mostly Cloudy,170,2005-01-01 11:53:00
6:02 AM,53.6,51.8,94,30.03,4.0,South,17.3,-,N/A,,Overcast,170,2005-01-01 12:02:00
6:53 AM,55.0,54.0,96,30.01,3.0,South,20.7,-,N/A,,Overcast,180,2005-01-01 12:53:00
7:00 AM,55.4,53.6,94,30.04,2.0,South,20.7,-,N/A,,Overcast,180,2005-01-01 13:00:00
7:09 AM,55.4,53.6,94,30.04,1.8,South,20.7,-,N/A,,Overcast,180,2005-01-01 13:09:00
7:53 AM,55.9,54.0,93,30.03,2.5,South,20.7,-,0.00,Rain,Light Rain,180,2005-01-01 13:53:00
8:31 AM,55.4,53.6,94,30.06,1.8,South,19.6,-,0.00,,Overcast,190,2005-01-01 14:31:00
8:40 AM,55.4,53.6,94,30.06,2.5,South,17.3,-,0.00,Rain,Light Rain,190,2005-01-01 14:40:00
8:53 AM,55.9,54.0,93,30.04,2.5,South,20.7,-,0.00,,Overcast,180,2005-01-01 14:53:00
9:53 AM,57.9,55.9,93,30.05,4.0,South,20.7,-,N/A,,Overcast,180,2005-01-01 15:53:00
10:25 AM,59.0,55.4,88,30.08,6.0,South,23.0,-,N/A,,Overcast,180,2005-01-01 16:25:00
10:53 AM,59.0,55.9,90,30.05,7.0,South,20.7,-,N/A,,Overcast,190,2005-01-01 16:53:00
11:34 AM,60.8,57.2,88,30.07,9.0,South,23.0,-,N/A,,Overcast,190,2005-01-01 17:34:00
11:45 AM,60.8,57.2,88,30.07,10.0,South,20.7,-,N/A,,Overcast,190,2005-01-01 17:45:00
11:53 AM,61.0,57.0,87,30.04,10.0,South,23.0,-,N/A,,Overcast,180,2005-01-01 17:53:00
12:03 PM,60.8,57.2,88,30.06,10.0,South,23.0,-,N/A,,Overcast,180,2005-01-01 18:03:00
12:34 PM,60.8,57.2,88,30.05,10.0,South,19.6,-,N/A,,Overcast,180,2005-01-01 18:34:00
12:43 PM,60.8,57.2,88,30.04,10.0,South,19.6,-,N/A,,Overcast,180,2005-01-01 18:43:00
12:53 PM,61.0,57.0,87,30.02,10.0,South,24.2,27.6,N/A,,Overcast,180,2005-01-01 18:53:00
1:53 PM,62.1,57.0,84,29.99,10.0,South,19.6,-,N/A,,Overcast,190,2005-01-01 19:53:00
2:24 PM,62.6,57.2,82,30.00,10.0,South,21.9,-,N/A,,Overcast,180,2005-01-01 20:24:00
2:53 PM,63.0,57.0,81,29.98,10.0,South,19.6,-,N/A,,Overcast,180,2005-01-01 20:53:00
3:53 PM,63.0,55.9,78,29.98,10.0,South,18.4,-,N/A,,Overcast,180,2005-01-01 21:53:00
4:53 PM,62.1,55.9,80,29.99,10.0,South,15.0,-,N/A,,Overcast,170,2005-01-01 22:53:00
5:53 PM,62.1,55.9,80,29.99,10.0,South,16.1,-,N/A,,Overcast,170,2005-01-01 23:53:00
6:53 PM,60.1,55.0,83,29.99,10.0,South,17.3,-,N/A,,Clear,170,2005-01-02 00:53:00
7:53 PM,59.0,54.0,83,30.01,10.0,South,13.8,-,N/A,,Clear,170,2005-01-02 01:53:00
8:53 PM,59.0,54.0,83,30.03,10.0,South,13.8,-,N/A,,Clear,170,2005-01-02 02:53:00
9:53 PM,57.9,54.0,87,30.04,10.0,South,16.1,-,N/A,,Clear,170,2005-01-02 03:53:00
10:53 PM,57.9,54.0,87,30.04,10.0,South,17.3,-,N/A,,Clear,190,2005-01-02 04:53:00
11:53 PM,57.0,54.0,89,30.05,10.0,South,18.4,-,N/A,,Clear,190,2005-01-02 05:53:00